Wind_Speed
49 53 53 53 55 57 62 67 71 77 89 109 115 112 113 117 114 111 112 102 108 100 94 98 94 97 93 95 95 95 93 93 90 85 77 77 70 72 71 64 73 74 69 73
49 51 51 52 51 51 53 62 68 72 83 97 108 108 113 115 120 122 116 110 107 106 99 92 97 109 100 99 105 104 101 102 95 85 82 80 82 78 74 77 74 74 76 71
46 50 52 53 54 53 50 55 64 72 77 92 99 104 109 114 118 125 128 124 116 108 96 100 105 101 100 95 98 101 105 104 104 97 97 96 91 83 85 80 77 76 76 77
48 48 51 54 55 55 54 53 57 69 78 87 100 103 105 112 115 119 126 131 130 128 121 115 97 95 103 109 111 104 95 97 102 103 103 104 96 90 75 74 78 84 85 84
51 51 53 53 55 57 58 57 55 60 72 84 98 103 104 109 117 117 120 127 131 135 134 129 127 112 105 103 91 105 113 112 102 100 93 85 86 84 87 89 94 92 89 93
55 53 55 54 54 56 59 61 61 61 63 73 87 104 97 105 116 119 121 126 129 132 136 139 138 135 125 104 100 107 95 92 98 103 101 100 100 98 99 102 104 104 98 91
61 59 58 57 55 55 57 59 63 66 67 67 74 88 96 105 111 120 122 126 134 134 133 132 131 136 137 131 124 106 95 94 99 98 90 87 87 89 90 93 92 77 78 80
62 65 64 62 60 60 58 59 60 62 67 71 71 71 83 100 115 121 124 128 130 131 132 133 135 137 141 138 135 129 131 127 106 97 99 91 72 70 74 74 75 78 87 91
52 62 69 69 65 64 64 65 66 66 68 69 71 75 79 89 104 121 126 127 128 128 132 133 134 135 134 134 138 139 136 133 130 129 115 94 92 94 91 84 91 94 95 96
44 50 61 69 68 69 67 69 71 72 73 75 75 76 80 90 97 102 119 127 129 131 131 134 137 134 132 135 134 133 135 137 135 130 128 127 123 121 113 107 100 99 97 95
41 43 51 57 62 67 69 73 76 77 77 78 77 79 86 92 99 98 102 109 123 131 132 133 135 136 134 134 133 132 132 129 125 120 116 116 115 111 107 103 98 94 94 87
35 39 44 49 49 56 62 67 73 76 79 80 81 78 89 91 94 95 98 105 107 113 120 129 135 137 135 133 131 129 128 125 125 120 115 109 108 104 99 96 95 95 91 86
32 34 40 42 42 45 49 55 59 60 64 71 70 70 77 83 86 90 94 99 101 108 110 113 114 121 129 132 131 127 122 118 119 115 109 104 100 99 97 95 94 90 85 79
30 32 36 40 39 37 43 46 46 47 52 55 60 54 68 69 67 71 74 73 81 92 97 102 102 106 114 115 114 116 115 113 113 113 105 99 97 95 92 89 83 77 75 72
26 29 30 36 36 33 40 41 40 46 49 50 55 52 57 54 56 58 58 56 58 65 70 75 82 88 94 101 104 103 100 95 93 97 96 93 92 90 87 84 77 74 74 72
21 23 27 30 30 31 38 40 41 40 43 42 42 46 50 51 51 48 48 44 42 45 51 56 60 65 70 76 84 85 87 89 88 83 83 79 76 70 66 59 56 60 60 57
16 16 22 21 22 31 37 35 32 37 37 33 34 38 44 43 38 36 35 33 34 37 38 38 42 49 52 55 58 63 69 77 78 74 73 69 67 58 54 46 48 47 45 42
10 12 15 17 18 28 32 26 29 30 32 27 27 28 32 28 28 23 23 26 23 24 25 29 33 35 38 42 47 53 56 61 63 59 58 59 49 46 40 40 41 39 35 32
11 12 14 19 20 26 21 18 24 22 32 23 17 22 21 19 16 11 11 11 14 20 23 24 25 26 27 30 35 40 44 44 46 47 44 37 36 35 34 37 35 29 27 23
16 15 16 19 21 24 19 16 17 19 24 22 14 13 11 6 6 8 11 15 16 16 18 18 19 22 25 25 27 33 37 40 39 41 38 35 42 40 37 32 29 27 22 20
22 20 19 20 20 21 20 18 16 14 15 14 8 5 2 6 8 11 13 15 18 20 21 23 26 29 31 32 35 46 49 51 54 51 42 41 41 39 37 35 28 23 19 19
20 18 18 17 17 18 16 16 15 14 8 4 4 8 13 17 21 22 23 23 24 25 27 30 34 36 41 51 59 66 71 68 66 58 45 45 41 41 36 31 26 27 21 21
22 21 18 16 14 14 14 15 12 6 2 10 14 22 25 29 33 38 38 38 38 41 39 37 36 40 50 63 77 77 72 66 64 62 54 54 44 39 32 28 31 23 23 17
25 22 20 17 15 13 11 8 3 6 15 20 30 33 40 48 53 55 57 60 58 57 57 52 54 60 66 71 73 67 65 68 66 60 52 49 38 34 34 30 26 20 17 17
28 22 21 16 14 13 6 4 13 20 26 36 46 50 59 68 72 76 76 74 74 67 68 68 62 64 68 70 73 71 67 59 53 49 41 35 29 28 30 26 22 18 17 19
26 24 21 16 14 10 7 16 25 30 41 55 59 72 85 86 84 80 75 71 74 71 68 64 64 60 60 63 66 60 51 47 39 36 33 27 21 17 16 17 18 16 14 16
Wind_Direction
246 245 246 248 246 242 240 239 239 234 226 222 221 223 225 228 229 235 238 237 241 239 240 239 237 236 237 239 242 245 248 254 255 256 260 265 270 269 272 267 274 278 277 283
245 244 245 245 246 244 240 236 234 229 224 220 223 224 226 228 229 231 231 236 239 241 239 243 246 243 243 246 245 248 252 254 256 258 259 259 261 266 265 269 271 274 278 277
248 245 243 242 243 244 244 239 235 230 227 222 223 226 228 230 232 233 234 235 234 237 239 245 244 240 241 244 248 249 251 254 255 257 258 261 263 265 266 265 268 271 272 278
250 248 246 242 241 241 242 243 238 235 229 227 224 226 230 231 234 236 236 238 238 239 238 240 241 242 245 245 245 248 247 249 253 256 258 262 264 262 258 262 263 273 276 278
251 249 247 247 243 241 241 241 242 238 235 231 229 227 231 233 235 237 237 238 239 241 242 243 243 242 244 246 245 250 249 249 250 254 254 249 253 251 257 261 270 274 274 274
248 248 250 249 246 244 241 239 239 241 239 236 235 230 229 235 235 237 238 237 238 241 243 245 244 245 244 240 247 251 250 251 254 256 257 259 262 263 263 265 270 273 276 276
247 246 247 247 248 247 246 244 241 240 241 239 238 236 234 236 237 238 238 238 238 240 242 244 247 246 247 246 242 238 242 250 254 256 258 258 258 264 267 269 269 270 270 271
246 246 245 245 244 243 244 246 246 245 244 242 241 239 240 240 238 238 239 240 240 242 243 243 245 248 248 248 248 245 245 246 246 251 252 253 252 253 255 257 261 267 268 272
248 245 246 245 243 242 244 245 245 244 244 244 244 240 241 242 243 238 241 241 243 245 243 243 245 245 247 250 249 248 247 246 248 251 250 249 252 253 258 255 260 268 271 273
252 248 247 247 245 244 244 246 245 245 244 245 244 244 243 245 243 242 241 241 244 244 245 246 245 245 247 247 249 251 250 249 249 249 251 254 257 259 260 262 262 264 269 271
260 254 250 250 247 246 246 245 247 248 248 247 246 248 246 246 245 244 243 242 243 243 245 246 247 247 247 246 247 250 251 252 252 252 253 254 256 258 260 262 263 264 266 268
262 255 253 252 251 250 248 249 250 251 252 253 252 249 252 251 251 250 249 248 246 246 244 244 247 248 247 248 248 247 249 251 253 253 254 255 256 257 260 262 263 263 265 267
267 254 254 254 252 250 252 251 253 254 255 256 256 255 255 254 253 253 250 250 249 249 247 247 245 246 248 248 248 249 248 249 252 253 253 254 256 258 259 259 260 263 265 266
272 258 253 257 256 256 255 257 258 261 260 260 261 258 260 257 257 257 255 251 249 249 250 249 247 246 246 247 247 248 249 247 248 251 252 252 253 254 255 257 260 262 262 262
275 261 251 252 258 255 259 261 264 264 264 265 265 262 262 263 258 254 256 256 250 248 249 248 248 248 246 245 246 245 245 245 244 246 249 250 250 252 253 256 257 258 257 257
280 262 254 253 255 256 262 268 269 268 264 261 260 264 266 263 264 263 260 260 257 254 249 248 248 248 249 246 245 243 242 243 243 241 242 244 245 247 248 249 249 246 247 248
296 273 260 258 252 264 269 273 274 272 273 271 268 265 267 271 272 264 261 259 249 245 246 243 243 243 243 241 239 234 233 234 236 235 236 238 240 242 242 240 239 239 238 239
311 282 274 278 273 275 273 278 274 272 276 278 281 273 272 274 275 275 265 256 253 247 241 234 231 231 229 225 222 221 220 224 227 227 228 230 232 230 225 223 226 225 228 228
333 318 302 293 286 278 285 280 276 285 286 285 282 274 277 274 278 268 245 225 218 219 217 220 217 215 213 212 211 208 207 209 209 209 211 205 208 195 195 204 209 205 205 203
333 316 301 298 296 293 307 292 281 274 275 288 287 279 266 264 238 214 198 192 196 192 191 188 181 178 186 182 188 186 176 173 181 179 172 168 168 176 187 189 179 171 179 185
327 323 313 309 308 304 306 297 290 283 287 299 307 249 180 159 161 155 157 154 156 156 146 149 149 158 151 151 153 154 152 151 148 142 144 159 163 159 158 153 152 161 175 194
342 328 315 314 307 307 307 301 301 303 310 302 175 147 133 135 122 118 120 123 119 121 132 144 149 148 150 146 144 142 140 140 139 136 149 153 157 154 148 143 159 174 193 195
344 341 333 332 322 315 306 297 307 318 97 151 143 132 130 122 120 111 108 112 116 113 112 119 125 133 140 139 136 136 138 140 140 139 151 148 140 137 145 161 172 201 195 221
358 358 353 346 338 320 313 323 10 129 152 143 134 136 125 119 115 112 110 109 109 108 105 111 120 124 125 133 138 141 139 137 131 128 128 130 134 146 155 170 196 205 226 230
5 6 5 1 336 342 356 79 134 144 143 135 136 128 122 122 118 115 114 116 115 116 117 119 123 127 127 131 134 130 124 122 117 121 123 121 129 141 163 180 200 214 215 215
3 7 2 347 350 18 92 133 140 141 139 137 132 128 123 122 119 120 121 120 117 117 121 123 129 129 125 128 132 128 126 127 121 121 112 111 117 133 164 195 194 196 213 231
Height
10542 10546 10550 10554 10557 10563 10569 10574 10580 10587 10599 10612 10627 10643 10647 10653 10665 10669 10678 10686 10696 10709 10716 10728 10738 10747 10755 10761 10766 10771 10781 10783 10789 10793 10799 10801 10809 10811 10816 10820 10818 10818 10822 10821
10528 10532 10537 10541 10544 10547 10552 10556 10561 10569 10579 10593 10607 10625 10630 10636 10642 10647 10657 10666 10675 10683 10698 10708 10718 10727 10737 10742 10750 10757 10761 10767 10774 10779 10785 10793 10798 10802 10805 10808 10809 10807 10808 10811
10516 10519 10523 10527 10530 10535 10539 10544 10549 10557 10566 10580 10592 10605 10613 10616 10621 10624 10631 10643 10656 10667 10675 10686 10697 10705 10716 10724 10732 10742 10747 10753 10760 10767 10774 10781 10786 10792 10795 10796 10796 10796 10794 10801
10505 10507 10509 10512 10517 10523 10526 10531 10536 10543 10551 10561 10573 10588 10593 10599 10598 10603 10614 10623 10632 10643 10655 10665 10669 10677 10688 10701 10712 10722 10728 10736 10743 10751 10759 10768 10775 10781 10783 10781 10782 10785 10782 10784
10491 10493 10494 10498 10504 10509 10513 10519 10524 10529 10536 10545 10549 10568 10574 10575 10577 10584 10594 10601 10608 10616 10625 10636 10648 10658 10664 10673 10681 10697 10712 10718 10723 10732 10741 10749 10758 10764 10767 10769 10770 10770 10769 10766
10475 10479 10480 10485 10489 10494 10499 10504 10510 10514 10519 10527 10533 10548 10561 10546 10556 10562 10570 10578 10584 10590 10595 10606 10620 10634 10649 10658 10666 10678 10686 10693 10702 10713 10725 10734 10740 10746 10749 10752 10755 10755 10755 10752
10456 10461 10465 10469 10475 10480 10484 10489 10494 10499 10503 10509 10515 10529 10538 10531 10532 10535 10543 10549 10557 10564 10577 10586 10594 10607 10622 10636 10650 10659 10669 10677 10682 10692 10700 10712 10721 10725 10731 10734 10737 10739 10737 10737
10440 10442 10446 10451 10458 10463 10468 10472 10476 10483 10486 10491 10500 10513 10508 10505 10506 10508 10522 10526 10531 10546 10559 10565 10572 10579 10591 10606 10619 10634 10650 10665 10670 10677 10686 10693 10701 10709 10716 10718 10720 10724 10720 10722
10421 10424 10425 10430 10438 10445 10450 10455 10459 10463 10466 10471 10479 10489 10489 10480 10470 10499 10498 10507 10512 10524 10528 10537 10545 10558 10569 10574 10588 10604 10620 10640 10650 10661 10674 10679 10687 10698 10702 10707 10704 10709 10703 10711
10405 10407 10408 10409 10419 10425 10433 10435 10437 10441 10448 10451 10458 10464 10463 10452 10455 10468 10477 10481 10487 10496 10500 10507 10518 10531 10544 10552 10559 10569 10586 10606 10624 10639 10652 10661 10671 10678 10688 10692 10700 10698 10691 10699
10390 10392 10391 10393 10399 10406 10414 10416 10417 10419 10425 10430 10438 10442 10437 10433 10429 10443 10447 10455 10459 10467 10471 10478 10485 10500 10512 10522 10537 10546 10557 10574 10594 10612 10628 10641 10652 10659 10666 10675 10680 10681 10678 10686
10376 10378 10376 10377 10386 10389 10393 10397 10399 10401 10405 10408 10410 10427 10411 10411 10413 10421 10425 10423 10431 10433 10439 10449 10458 10464 10479 10491 10506 10523 10534 10551 10565 10584 10603 10620 10629 10637 10647 10654 10659 10663 10666 10673
10363 10365 10363 10365 10370 10374 10377 10378 10380 10385 10387 10385 10390 10395 10389 10385 10390 10389 10394 10393 10404 10403 10411 10419 10432 10437 10443 10457 10473 10489 10510 10532 10540 10557 10579 10595 10609 10619 10627 10633 10638 10646 10652 10658
10351 10352 10352 10352 10356 10362 10360 10362 10366 10370 10370 10369 10365 10377 10358 10362 10368 10365 10365 10373 10374 10379 10386 10392 10401 10412 10417 10427 10443 10459 10481 10506 10521 10530 10551 10571 10586 10596 10604 10613 10624 10631 10636 10640
10342 10341 10344 10343 10346 10350 10347 10349 10355 10355 10352 10355 10349 10350 10345 10349 10345 10345 10349 10350 10354 10359 10364 10369 10376 10385 10394 10405 10420 10436 10458 10478 10498 10512 10529 10548 10560 10574 10587 10597 10608 10615 10616 10622
10333 10334 10335 10336 10339 10340 10337 10339 10341 10341 10337 10339 10340 10337 10330 10329 10328 10333 10335 10339 10343 10347 10348 10354 10362 10368 10376 10387 10398 10419 10441 10458 10475 10498 10512 10527 10542 10559 10572 10583 10592 10596 10600 10606
10328 10329 10329 10332 10335 10332 10328 10329 10329 10326 10324 10326 10326 10324 10320 10320 10321 10322 10324 10327 10328 10329 10335 10342 10348 10353 10360 10370 10382 10397 10415 10435 10456 10481 10499 10516 10529 10547 10558 10571 10578 10583 10588 10593
10324 10324 10324 10326 10329 10324 10319 10320 10318 10316 10311 10314 10314 10313 10311 10313 10311 10314 10316 10316 10320 10324 10328 10331 10335 10343 10350 10358 10368 10380 10399 10420 10445 10469 10489 10504 10522 10536 10548 10559 10566 10572 10579 10585
10322 10321 10320 10317 10318 10314 10312 10312 10310 10309 10303 10304 10308 10306 10306 10306 10308 10309 10310 10311 10313 10315 10318 10324 10331 10339 10346 10354 10364 10379 10396 10418 10441 10462 10482 10498 10513 10527 10538 10548 10558 10566 10573 10579
10320 10317 10314 10313 10310 10307 10308 10307 10305 10304 10301 10300 10303 10304 10303 10304 10305 10305 10307 10307 10310 10314 10318 10325 10330 10338 10344 10353 10365 10381 10400 10417 10439 10460 10478 10495 10508 10520 10532 10545 10555 10563 10569 10574
10316 10313 10310 10308 10306 10303 10301 10299 10299 10298 10299 10299 10301 10301 10302 10303 10305 10308 10309 10311 10314 10317 10323 10330 10335 10341 10348 10358 10371 10386 10403 10421 10443 10460 10479 10497 10513 10522 10535 10543 10552 10559 10566 10571
10314 10311 10308 10306 10303 10300 10297 10296 10294 10296 10298 10300 10301 10303 10304 10307 10310 10314 10317 10320 10323 10328 10334 10339 10344 10351 10357 10364 10376 10394 10410 10428 10444 10459 10485 10500 10517 10525 10535 10542 10552 10557 10562 10566
10313 10310 10307 10303 10300 10297 10295 10293 10295 10297 10298 10300 10304 10309 10311 10315 10319 10323 10326 10332 10339 10344 10349 10355 10361 10368 10375 10383 10394 10408 10424 10438 10450 10463 10486 10501 10517 10526 10535 10541 10548 10554 10558 10564
10309 10305 10303 10300 10297 10294 10293 10294 10295 10297 10299 10304 10310 10315 10320 10325 10327 10333 10337 10343 10352 10359 10365 10374 10380 10387 10393 10401 10413 10425 10439 10454 10463 10477 10493 10503 10518 10527 10532 10539 10546 10551 10555 10560
10308 10304 10301 10298 10293 10292 10293 10294 10296 10299 10305 10311 10318 10323 10328 10332 10336 10343 10350 10357 10361 10370 10377 10387 10402 10409 10415 10420 10430 10442 10453 10465 10475 10486 10499 10506 10517 10523 10530 10538 10544 10549 10553 10557
10307 10303 10299 10295 10293 10294 10293 10295 10299 10306 10313 10321 10328 10332 10337 10343 10349 10356 10364 10373 10380 10388 10398 10409 10420 10429 10431 10439 10447 10455 10463 10472 10483 10494 10500 10507 10516 10522 10529 10537 10542 10546 10549 10551